カタログに戻る

STARLINK-35931

運用中通信VLEO
NORAD 66519·PAYLOAD·🇺🇸 United States

打ち上げ Nov 19, 2025 から Cape Canaveral Space Force Station

Loading…

次のパス (今後24時間)

TLE

最新Source: CelesTrak SupGP

元期: Sep 15, 2026, 03:09 UTC

1 66519C 25265D   26258.13173611  .00005079  00000+0  18382-3 0  2586
2 66519  43.0001 288.1442 0001166 265.8145 151.9275 15.27601702    13

AllMySatでSTARLINK-35931をリアルタイム追跡

Download on the App Store